Home > Weather > Gothenburg > Past weeks

Flag for Sweden Weather for the Past 2 Weeks in Gothenburg, Sweden

Now
52 °F

Sunny.


Feels Like: 46 °F
Forecast: 42 / 47 °F
Wind: 21 mph from South

Location: Gothenburg / Save

Current Time: Apr 29, 2016 at 4:59:22 PM

Latest Report: Apr 29, 2016 at 4:20 PM


Visibility: 10 mi

Pressure: 29.95 "Hg

Humidity: 41%

Dew Point: 28 °F

Location of GothenburgLocation

Historic Weather in Gothenburg — Graph

°F

Gothenburg Temperature Yesterday

Maximum temperature yesterday: 48 °F (at 11:50 AM)
Minimum temperature yesterday: 34 °F (at 5:20 AM)
Average temperature yesterday: 40 °F

High & Low Weather Summary for the Past Weeks

 TemperatureHumidityPressure
High52 °F (Apr 19, 2:20 PM)100% (Apr 16, 8:20 PM)30.24 "Hg (Apr 16, 8:20 PM)
Low27 °F (Apr 24, 4:20 AM)34% (Apr 23, 11:20 AM)29.21 "Hg (Apr 17, 5:50 AM)
Average43 °F74%29.74 "Hg
* Reported Apr 14 3:20 PM — Apr 29 3:50 PM, Gothenburg, Weather by CustomWeather, © 2016

Note: Actual official high and low records may vary slightly from our data, if they occured in-between our weather recording intervals... More about our weather records

Advertising

Gothenburg Weather History for the Previous 24 Hours

Scroll right to see more
 ConditionsComfort  
Time TempWeatherWind HumidityBarometerVisibility
3:50 PM
Fri, Apr 29
52 °FPassing clouds.20 mph47%29.95 "HgN/A
3:20 PM52 °FPassing clouds.22 mph44%29.95 "HgN/A
2:50 PM50 °FPassing clouds.18 mph47%29.95 "HgN/A
2:20 PM48 °FPassing clouds.21 mph50%29.95 "HgN/A
1:50 PM48 °FScattered clouds.23 mph50%29.95 "HgN/A
1:20 PM48 °FPartly sunny.22 mph62%29.95 "HgN/A
12:50 PM46 °FScattered clouds.22 mph62%29.95 "HgN/A
12:20 PM46 °FBroken clouds.22 mph66%29.95 "HgN/A
11:50 AM46 °FBroken clouds.21 mph71%29.92 "HgN/A
11:20 AM46 °FPartly sunny.18 mph66%29.92 "HgN/A
10:50 AM43 °FPartly sunny.18 mph81%29.92 "HgN/A
10:20 AM45 °FScattered clouds.15 mph71%29.92 "HgN/A
9:50 AM45 °FScattered clouds.18 mph71%29.89 "HgN/A
9:20 AM45 °FScattered clouds.16 mph71%29.89 "HgN/A
8:20 AM43 °FBroken clouds.14 mph81%29.86 "HgN/A
7:50 AM43 °FBroken clouds.17 mph76%29.86 "HgN/A
6:50 AM41 °FBroken clouds.9 mph87%29.83 "HgN/A
6:20 AM41 °FPartly cloudy.14 mph87%29.80 "HgN/A
5:50 AM41 °FPartly cloudy.9 mph87%29.80 "HgN/A
5:20 AM39 °FPassing clouds.10 mph87%29.77 "HgN/A
4:20 AM41 °FOvercast.9 mph87%29.77 "HgN/A
3:50 AM41 °FPartly cloudy.7 mph87%29.77 "HgN/A
3:20 AM41 °FPassing clouds.9 mph87%29.77 "HgN/A
2:50 AM41 °FPassing clouds.8 mph87%29.77 "HgN/A
2:20 AM41 °FPartly cloudy.7 mph87%29.77 "HgN/A
1:50 AM41 °FMostly cloudy.7 mph93%29.77 "HgN/A
1:20 AM39 °FFog.5 mph93%29.77 "Hg6 mi
12:20 AM37 °FDrizzle. Mostly cloudy.3 mph100%29.77 "Hg3 mi
11:50 PM
Thu, Apr 28
37 °FDrizzle. Mostly cloudy.2 mph93%29.77 "Hg1 mi
11:20 PM37 °FDrizzle. Overcast.2 mph93%29.77 "Hg4 mi
10:50 PM37 °FFog.1 mph100%29.77 "Hg5 mi
10:20 PM37 °FFog.5 mph93%29.77 "Hg2 mi
9:50 PM37 °FFog.No wind93%29.77 "Hg5 mi
9:20 PM37 °FBroken clouds.1 mph93%29.77 "Hg5 mi
8:50 PM39 °FOvercast.3 mph93%29.80 "HgN/A
8:20 PM39 °FOvercast.3 mph93%29.80 "HgN/A
7:50 PM39 °FDrizzle. Mostly cloudy.2 mph93%29.80 "Hg4 mi
7:20 PM39 °FDrizzle. Mostly cloudy.2 mph93%29.80 "HgN/A
6:50 PM37 °FLight rain. Cloudy.6 mph93%29.80 "Hg2 mi
6:20 PM41 °FRain showers. Cloudy.2 mph87%29.80 "Hg2 mi
5:50 PM43 °FBroken clouds.7 mph81%29.80 "HgN/A
5:20 PM43 °FBroken clouds.9 mph87%29.80 "HgN/A
4:50 PM41 °FLight rain. Mostly cloudy.7 mph87%29.80 "HgN/A
4:20 PM39 °FRain showers. Mostly cloudy.6 mph87%29.80 "Hg2 mi
Weather by CustomWeather, © 2016

See weather overviewHow to use our weather pages